�N����,����,�g�[���i�䏊�j���x,�g�[�����x,��g�[���i��Q���j���x,����
 2004/01/01, 0:00,19,51,16.7,9.1
 2004/01/01, 0:15,18.8,51,16.4,9.2
 2004/01/01, 0:30,18.7,50,16.1,9.2
 2004/01/01, 0:45,18.3,51,16,9.3
 2004/01/01, 1:00,18,51,15.8,8.9
 2004/01/01, 1:15,18,51,15.6,9
 2004/01/01, 1:30,17.9,51,15.4,9.1
 2004/01/01, 1:45,17.5,51,15.2,9.1
 2004/01/01, 2:00,17.5,51,15.1,9.2
 2004/01/01, 2:15,17.4,51,14.9,9.2
 2004/01/01, 2:30,17.3,51,14.7,9.3
 2004/01/01, 2:45,17,50,14.6,9.3
 2004/01/01, 3:00,16.8,51,14.4,9.4
 2004/01/01, 3:15,16.8,51,14.3,9.4
 2004/01/01, 3:30,17,50,14.1,8.9
 2004/01/01, 3:45,16.6,50,14,9
 2004/01/01, 4:00,16.3,50,13.8,9
 2004/01/01, 4:15,16.3,51,13.7,9.1
 2004/01/01, 4:30,16.4,50,13.6,9.1
 2004/01/01, 4:45,16,50,13.5,9.2
 2004/01/01, 5:00,15.8,50,13.4,9.2
 2004/01/01, 5:15,15.9,51,13.3,9.3
 2004/01/01, 5:30,16,50,13.2,9.3
 2004/01/01, 5:45,15.6,50,13.1,9.4
 2004/01/01, 6:00,15.5,50,13,9.4
 2004/01/01, 6:15,15.6,51,12.9,9.5
 2004/01/01, 6:30,15.6,50,12.8,9.5
 2004/01/01, 6:45,15.2,50,12.7,9.6
 2004/01/01, 7:00,15,50,12.6,9.6
 2004/01/01, 7:15,15.1,51,12.5,9.7
 2004/01/01, 7:30,15.2,50,12.4,9.7
 2004/01/01, 7:45,14.8,50,12.3,9.7
 2004/01/01, 8:00,14.6,50,12.2,9.8
 2004/01/01, 8:15,14.7,51,12.1,9.8
 2004/01/01, 8:30,14.9,50,12,8.8
 2004/01/01, 8:45,14.5,50,12,8.8
 2004/01/01, 9:00,14.4,51,12,8.9
 2004/01/01, 9:15,14.4,54,12,9
 2004/01/01, 9:30,14.4,55,12,9
 2004/01/01, 9:45,14.6,54,12.1,9
 2004/01/01,10:00,14.5,56,12.2,9.1
 2004/01/01,10:15,14.5,56,12.3,9.1
 2004/01/01,10:30,14.6,56,12.5,9.2
 2004/01/01,10:45,14.9,54,12.6,9.2
 2004/01/01,11:00,14.6,54,12.8,9.3
 2004/01/01,11:15,14.5,54,12.9,9.3
 2004/01/01,11:30,14.9,58,13,9
 2004/01/01,11:45,15.1,57,13,9
 2004/01/01,12:00,15,68,13.3,9.1
 2004/01/01,12:15,14.7,63,13.5,9.1
 2004/01/01,12:30,15.1,60,13.6,8.7
 2004/01/01,12:45,15.2,56,13.8,8.7
 2004/01/01,13:00,15,56,13.9,8.8
 2004/01/01,13:15,15.2,57,14.1,8.8
 2004/01/01,13:30,15.5,56,14.2,8.9
 2004/01/01,13:45,15.6,54,14.1,8.9
 2004/01/01,14:00,15.4,53,14,9
 2004/01/01,14:15,15,55,14,9
 2004/01/01,14:30,15.2,55,14,9.1
 2004/01/01,14:45,16.1,52,13.9,9.1
 2004/01/01,15:00,16.2,50,13.8,9.2
 2004/01/01,15:15,16.1,50,13.8,8.6
 2004/01/01,15:30,15.6,51,13.8,8.6
 2004/01/01,15:45,15.9,50,13.8,8.7
 2004/01/01,16:00,15.9,51,13.7,8.8
 2004/01/01,16:15,16,58,13.8,8.8
 2004/01/01,16:30,16.3,56,13.8,8.9
 2004/01/01,16:45,16.1,52,13.7,8.9
 2004/01/01,17:00,15.9,56,13.6,9
 2004/01/01,17:15,16,54,13.6,9
 2004/01/01,17:30,16.3,54,13.6,8.7
 2004/01/01,17:45,16.4,54,13.9,8.7
 2004/01/01,18:00,16.8,53,14.3,8.8
 2004/01/01,18:15,16.3,54,13.9,8.8
 2004/01/01,18:30,16.7,52,14,8.9
 2004/01/01,18:45,17.1,50,14.6,8.9
 2004/01/01,19:00,17.3,51,14.9,9
 2004/01/01,19:15,17.5,50,15.1,9
 2004/01/01,19:30,18.1,50,15.4,8.9
 2004/01/01,19:45,18.2,50,15.6,9
 2004/01/01,20:00,18.3,52,15.6,9
 2004/01/01,20:15,18.4,50,15.8,8.9
 2004/01/01,20:30,18.9,50,15.9,8.9
 2004/01/01,20:45,19,50,16,9
 2004/01/01,21:00,18.9,50,16.1,9
 2004/01/01,21:15,18.9,52,16.1,9.1
 2004/01/01,21:30,19.2,52,16.3,9.3
 2004/01/01,21:45,19.1,52,16.3,9
 2004/01/01,22:00,19,52,16,9
 2004/01/01,22:15,19.2,51,16,9.1
 2004/01/01,22:30,19.1,53,16,8.8
 2004/01/01,22:45,18.9,54,16,8.7
 2004/01/01,23:00,18.9,54,15.9,8.8
 2004/01/01,23:15,19.1,53,15.9,8.8
 2004/01/01,23:30,19.1,53,15.9,9.1
 2004/01/01,23:45,19.2,52,16,9.2
 2004/01/02, 0:00,19.3,51,15.9,9.2
 2004/01/02, 0:15,19.2,50,15.9,9.2
 2004/01/02, 0:30,18.9,51,15.9,9.3
 2004/01/02, 0:45,19.2,50,16,9.3
 2004/01/02, 1:00,19.2,51,16.1,9
 2004/01/02, 1:15,18.5,54,15.2,9.1
 2004/01/02, 1:30,18.4,55,20.7,9.1
 2004/01/02, 1:45,18.3,55,20.3,9.2
 2004/01/02, 2:00,17.6,56,17.1,9.2
 2004/01/02, 2:15,17.6,56,16.2,9.3
 2004/01/02, 2:30,17.7,56,15.7,8.9
 2004/01/02, 2:45,17.2,57,15.2,9
 2004/01/02, 3:00,17.1,58,14.9,9
 2004/01/02, 3:15,16.9,59,14.7,9.1
 2004/01/02, 3:30,17,58,14.4,9.1
 2004/01/02, 3:45,16.7,58,14.1,9.2
 2004/01/02, 4:00,16.5,59,14,9.2
 2004/01/02, 4:15,16.2,59,13.8,9.3
 2004/01/02, 4:30,16.4,58,13.6,9.3
 2004/01/02, 4:45,16.3,58,13.4,9.4
 2004/01/02, 5:00,16,59,13.2,9.4
 2004/01/02, 5:15,15.8,59,13.1,9.4
 2004/01/02, 5:30,16,58,13,9.5
 2004/01/02, 5:45,16,57,12.9,9.5
 2004/01/02, 6:00,15.6,58,12.7,8.8
 2004/01/02, 6:15,15.4,58,12.6,8.8
 2004/01/02, 6:30,15.5,58,12.5,8.8
 2004/01/02, 6:45,15.5,57,12.3,8.9
 2004/01/02, 7:00,15.2,58,12.3,8.9
 2004/01/02, 7:15,15.1,58,12,9
 2004/01/02, 7:30,15.2,58,12,9
 2004/01/02, 7:45,15.1,55,11.9,9.1
 2004/01/02, 8:00,14.7,56,11.9,9.1
 2004/01/02, 8:15,14.6,56,11.9,9.2
 2004/01/02, 8:30,14.6,57,12.1,9.2
 2004/01/02, 8:45,14.8,56,12.1,9.2
 2004/01/02, 9:00,14.3,57,12.3,8.7
 2004/01/02, 9:15,14.5,57,12.1,8.8
 2004/01/02, 9:30,15.1,59,12.1,9.4
 2004/01/02, 9:45,15.8,62,12.3,9.4
 2004/01/02,10:00,16.5,62,12.1,9.4
 2004/01/02,10:15,17.4,59,12.1,9.1
 2004/01/02,10:30,17.7,58,13,9.1
 2004/01/02,10:45,17.8,56,12.7,8.9
 2004/01/02,11:00,17.3,57,12.3,8.9
 2004/01/02,11:15,17.1,57,12.4,8.9
 2004/01/02,11:30,17,56,13.8,8.9
 2004/01/02,11:45,17.3,53,13.1,9
 2004/01/02,12:00,18.3,53,14.6,9
 2004/01/02,12:15,18.4,54,14.9,9.1
 2004/01/02,12:30,18.4,54,14.2,8.8
 2004/01/02,12:45,18.5,47,14.4,8.8
 2004/01/02,13:00,18.8,52,13.6,9.1
 2004/01/02,13:15,18.9,48,13.8,9.1
 2004/01/02,13:30,18.9,49,15,9.5
 2004/01/02,13:45,19.3,48,15.5,9.4
 2004/01/02,14:00,19.7,47,15.4,9.5
 2004/01/02,14:15,19.8,47,15.4,9.3
 2004/01/02,14:30,19.8,49,15.7,9.3
 2004/01/02,14:45,20,49,16,9.3
 2004/01/02,15:00,20,49,16.2,9
 2004/01/02,15:15,19.6,48,16.4,9
 2004/01/02,15:30,19.5,49,16.5,9.1
 2004/01/02,15:45,19.6,49,16.6,9.1
 2004/01/02,16:00,19.6,49,17.1,9.2
 2004/01/02,16:15,19.6,49,17,9
 2004/01/02,16:30,19.5,49,16.4,9
 2004/01/02,16:45,19.4,49,16.1,9.1
 2004/01/02,17:00,20.1,56,16.1,9.1
 2004/01/02,17:15,19.9,49,16.1,8.7
 2004/01/02,17:30,20.3,47,16.1,8.8
 2004/01/02,17:45,20.4,48,16.1,8.8
 2004/01/02,18:00,20.3,53,17,8.7
 2004/01/02,18:15,20.4,54,17,8.8
 2004/01/02,18:30,20.3,53,17.1,8.8
 2004/01/02,18:45,20.5,52,17,8.9
 2004/01/02,19:00,20.5,54,17.1,8.9
 2004/01/02,19:15,20.2,53,17.2,9.3
 2004/01/02,19:30,20.2,57,16.7,9.3
 2004/01/02,19:45,20.4,58,16,9
 2004/01/02,20:00,20.4,60,16.3,9.1
 2004/01/02,20:15,20.2,61,17,9.1
 2004/01/02,20:30,20.3,62,16.8,9.2
 2004/01/02,20:45,20.4,58,16.3,9
 2004/01/02,21:00,20,56,15.9,9.1
 2004/01/02,21:15,20,55,15.6,9
 2004/01/02,21:30,20.1,54,15.4,9
 2004/01/02,21:45,19.9,57,15.2,8.9
 2004/01/02,22:00,20.3,58,15,9.1
 2004/01/02,22:15,20.3,51,14.8,9.2
 2004/01/02,22:30,20.6,49,14.4,9.2
 2004/01/02,22:45,20.7,49,14.3,9.3
 2004/01/02,23:00,20.3,49,14.2,9.3
 2004/01/02,23:15,20.4,52,14.1,9.1
 2004/01/02,23:30,20.2,51,16,9.1
 2004/01/02,23:45,20,52,16.2,9.2
 2004/01/03, 0:00,19.8,54,16.4,9.2
 2004/01/03, 0:15,20,53,16.6,9.3
 2004/01/03, 0:30,20,54,15.6,8.9
 2004/01/03, 0:45,19.6,55,14.9,8.9
 2004/01/03, 1:00,19.3,58,14.7,8.9
 2004/01/03, 1:15,19.2,58,14.4,9
 2004/01/03, 1:30,18.9,58,14.2,9
 2004/01/03, 1:45,18.6,59,14.1,9.1
 2004/01/03, 2:00,18.3,59,13.9,9.2
 2004/01/03, 2:15,18.3,60,13.8,8.8
 2004/01/03, 2:30,18.3,58,14.1,8.9
 2004/01/03, 2:45,17.8,57,14.1,9
 2004/01/03, 3:00,17.6,57,14.1,9
 2004/01/03, 3:15,17.6,57,14,9.1
 2004/01/03, 3:30,17.6,56,14,9.1
 2004/01/03, 3:45,17.2,56,13.8,9.2
 2004/01/03, 4:00,17,57,13.8,9.2
 2004/01/03, 4:15,16.8,57,13.6,9.3
 2004/01/03, 4:30,17,56,13.5,9.3
 2004/01/03, 4:45,16.9,56,13.1,8.8
 2004/01/03, 5:00,16.6,57,13,8.8
 2004/01/03, 5:15,16.5,58,12.8,8.9
 2004/01/03, 5:30,16.6,57,12.6,8.9
 2004/01/03, 5:45,16.5,56,12.6,9
 2004/01/03, 6:00,16.2,57,12.4,9
 2004/01/03, 6:15,15.9,58,12.3,9.1
 2004/01/03, 6:30,16.2,56,12.2,9.1
 2004/01/03, 6:45,16,55,12.1,9.2
 2004/01/03, 7:00,15.7,57,12,9.2
 2004/01/03, 7:15,15.9,59,12.3,9.3
 2004/01/03, 7:30,16.4,55,12.3,9
 2004/01/03, 7:45,16.6,49,12.9,9.2
 2004/01/03, 8:00,17.5,48,12.2,9.2
 2004/01/03, 8:15,17.8,47,11.7,9.4
 2004/01/03, 8:30,17.3,50,11.6,9.4
 2004/01/03, 8:45,17.7,49,11.5,9.5
 2004/01/03, 9:00,18.4,49,11.3,9.5
 2004/01/03, 9:15,18.8,49,13.6,9.1
 2004/01/03, 9:30,19.6,47,13,9.1
 2004/01/03, 9:45,19.6,45,12.3,8.9
 2004/01/03,10:00,19.9,43,12.5,9
 2004/01/03,10:15,20.1,44,12.4,9
 2004/01/03,10:30,19.8,45,12.3,9
 2004/01/03,10:45,19.5,46,12.5,9.1
 2004/01/03,11:00,20,48,12.6,9.1
 2004/01/03,11:15,19.9,47,12.8,9.4
 2004/01/03,11:30,19.8,51,13,9.4
 2004/01/03,11:45,20.1,55,13.3,9.4
 2004/01/03,12:00,20.5,52,13.6,9.2
 2004/01/03,12:15,21.2,58,13.7,9.2
 2004/01/03,12:30,21.3,58,13.9,9.2
 2004/01/03,12:45,20.8,62,14.1,9.3
 2004/01/03,13:00,20.5,57,14.2,8.7
 2004/01/03,13:15,20.8,54,14.2,8.8
 2004/01/03,13:30,20.5,53,14,8.9
 2004/01/03,13:45,21.1,56,14,9
 2004/01/03,14:00,21.1,57,14.1,8.9
 2004/01/03,14:15,20.9,57,14.2,9.4
 2004/01/03,14:30,20.6,60,14.3,9.2
 2004/01/03,14:45,20.6,57,14.5,9.2
 2004/01/03,15:00,20.4,50,16.4,9.1
 2004/01/03,15:15,20.3,51,15.4,9
 2004/01/03,15:30,20.7,54,15.1,9
 2004/01/03,15:45,20.8,53,15,9.1
 2004/01/03,16:00,20.6,52,15.1,9.1
 2004/01/03,16:15,20.8,53,15.1,9.2
 2004/01/03,16:30,21.2,51,15.1,9.2
 2004/01/03,16:45,21,51,15.2,8.9
 2004/01/03,17:00,20.9,48,15.2,9.7
 2004/01/03,17:15,21.3,46,15.2,9.7
 2004/01/03,17:30,21.3,47,17.5,9.3
 2004/01/03,17:45,21.3,49,17.8,9.3
 2004/01/03,18:00,21.7,48,18.2,9
 2004/01/03,18:15,22,48,18.4,9
 2004/01/03,18:30,21.9,52,18.6,9.1
 2004/01/03,18:45,22.2,55,18.9,9.1
 2004/01/03,19:00,22.4,57,19,9.2
 2004/01/03,19:15,22.2,56,19.1,9.2
 2004/01/03,19:30,22.5,53,19.2,9.3
 2004/01/03,19:45,23,51,19.3,9.4
 2004/01/03,20:00,23,52,19.4,9.1
 2004/01/03,20:15,22.9,51,19.3,9.2
 2004/01/03,20:30,23,53,19.5,8.9
 2004/01/03,20:45,22.7,54,19.5,8.9
 2004/01/03,21:00,22.8,51,19.4,9.2
 2004/01/03,21:15,22.9,51,19.6,9.3
 2004/01/03,21:30,22.7,49,19.6,9.3
 2004/01/03,21:45,22.7,50,19.7,9.4
 2004/01/03,22:00,22.8,52,19.7,9.5
 2004/01/03,22:15,22.6,50,19.7,9.5
 2004/01/03,22:30,22.4,49,19.7,9.1
 2004/01/03,22:45,22.6,53,19.9,9
 2004/01/03,23:00,22.8,51,19.9,9
 2004/01/03,23:15,22.8,49,19.7,9.1
 2004/01/03,23:30,23,59,19.8,9.2
 2004/01/03,23:45,23,51,19.7,9.2
 2004/01/04, 0:00,22.7,48,19.6,9
 2004/01/04, 0:15,21.9,48,19.1,9.1
 2004/01/04, 0:30,21.3,46,17.4,9.1
 2004/01/04, 0:45,20.9,47,17,9.2
 2004/01/04, 1:00,20.2,50,16.7,9.3
 2004/01/04, 1:15,19.9,51,16.5,9.3
 2004/01/04, 1:30,20.2,51,16.3,9.4
 2004/01/04, 1:45,20.8,49,16,9.5
 2004/01/04, 2:00,20.8,48,15.9,9.6
 2004/01/04, 2:15,20.4,48,15.7,9.6
 2004/01/04, 2:30,20.4,48,15.5,9.7
 2004/01/04, 2:45,20.4,48,15.3,9.8
 2004/01/04, 3:00,20,48,15.2,9
 2004/01/04, 3:15,19.5,50,15,8.9
 2004/01/04, 3:30,19.6,49,14.9,8.9
 2004/01/04, 3:45,19.5,49,14.7,9
 2004/01/04, 4:00,19.2,49,14.6,9
 2004/01/04, 4:15,19,50,14.4,9.1
 2004/01/04, 4:30,19,50,14.4,9.2
 2004/01/04, 4:45,18.8,50,14.3,9.2
 2004/01/04, 5:00,18.5,50,14.2,9.3
 2004/01/04, 5:15,18.8,50,14.1,9.4
 2004/01/04, 5:30,18.6,50,14,9.4
 2004/01/04, 5:45,18.1,50,13.8,8.8
 2004/01/04, 6:00,18.3,50,13.7,8.9
 2004/01/04, 6:15,18.3,50,13.6,9
 2004/01/04, 6:30,17.9,50,13.5,9
 2004/01/04, 6:45,17.7,51,13.5,9.1
 2004/01/04, 7:00,17.8,50,13.6,9.1
 2004/01/04, 7:15,17.7,52,13.4,9.1
 2004/01/04, 7:30,17.9,53,13.2,9
 2004/01/04, 7:45,18.2,51,13.1,8.9
 2004/01/04, 8:00,17.9,51,13,8.7
 2004/01/04, 8:15,17.7,51,12.9,8.8
 2004/01/04, 8:30,17.6,57,12.8,8.8
 2004/01/04, 8:45,17.9,59,12.8,8.8
 2004/01/04, 9:00,17.7,59,12.8,9
 2004/01/04, 9:15,17.4,58,12.8,9
 2004/01/04, 9:30,17.7,56,13,9.1
 2004/01/04, 9:45,17.8,53,12.9,9.1
 2004/01/04,10:00,17.3,51,13,9.2
 2004/01/04,10:15,16.9,51,13,9.2
 2004/01/04,10:30,17.2,51,13.2,9.2
 2004/01/04,10:45,17,51,13.3,9.3
 2004/01/04,11:00,16.9,52,13.6,9.3
 2004/01/04,11:15,17.3,58,13.8,9.4
 2004/01/04,11:30,17.9,54,14.1,9.4
 2004/01/04,11:45,17.7,54,14.1,8.8
 2004/01/04,12:00,17.9,51,14.4,8.8
 2004/01/04,12:15,18.2,47,14.4,8.9
 2004/01/04,12:30,17.8,46,14.5,9
 2004/01/04,12:45,18.3,50,14.6,9
 2004/01/04,13:00,18.3,52,14.7,8.8
 2004/01/04,13:15,17.9,51,14.8,8.9
 2004/01/04,13:30,17.8,51,14.8,9
 2004/01/04,13:45,17.7,49,14.8,8.9
 2004/01/04,14:00,17.5,49,14.9,9
 2004/01/04,14:15,17.2,50,14.9,9
 2004/01/04,14:30,17.3,48,14.7,8.7
 2004/01/04,14:45,17.1,50,14.3,8.7
 2004/01/04,15:00,16.7,51,14.3,8.8
 2004/01/04,15:15,16.9,51,14.1,8.8
 2004/01/04,15:30,16.9,51,14.1,8.9
 2004/01/04,15:45,16.6,48,14,9.1
 2004/01/04,16:00,16.9,49,14,9.2
 2004/01/04,16:15,17.1,50,14,9.2
 2004/01/04,16:30,17,51,13.9,9.3
 2004/01/04,16:45,17.3,52,13.8,9.3
 2004/01/04,17:00,17.8,54,13.8,9.2
 2004/01/04,17:15,18.3,54,13.7,9.3
 2004/01/04,17:30,18.5,55,13.6,8.9
 2004/01/04,17:45,19.1,50,13.6,8.8
 2004/01/04,18:00,18.9,47,13.5,8.8
 2004/01/04,18:15,19.6,50,13.5,8.8
 2004/01/04,18:30,20.3,49,13.4,8.9
 2004/01/04,18:45,20.7,48,13.3,8.8
 2004/01/04,19:00,20.9,49,13.3,8.9
 2004/01/04,19:15,20.9,48,13.3,8.9
 2004/01/04,19:30,21.2,48,13.3,9
 2004/01/04,19:45,21.4,49,13.2,8.8
 2004/01/04,20:00,21.2,50,13.2,8.8
 2004/01/04,20:15,21.1,49,13.2,8.9
 2004/01/04,20:30,21.2,48,17.8,8.8
 2004/01/04,20:45,21.1,47,18.2,8.9
 2004/01/04,21:00,21.2,48,18.3,9
 2004/01/04,21:15,21.3,49,18.4,8.8
 2004/01/04,21:30,21.3,49,18.6,8.9
 2004/01/04,21:45,21.2,49,18.7,9
 2004/01/04,22:00,21.4,49,18,9
 2004/01/04,22:15,21.1,47,17.5,9
 2004/01/04,22:30,21,46,17.4,9.1
 2004/01/04,22:45,21.2,44,17.6,9.1
 2004/01/04,23:00,21,48,17.8,9.2
 2004/01/04,23:15,20.6,49,17.9,9.2
 2004/01/04,23:30,20.6,52,17.9,9.3
 2004/01/04,23:45,20.7,52,17.9,8.9
 2004/01/05, 0:00,20.2,52,17.5,8.9
 2004/01/05, 0:15,20.2,53,17.8,9
 2004/01/05, 0:30,20.4,53,17.9,9.1
 2004/01/05, 0:45,19.6,54,16.4,9.1
 2004/01/05, 1:00,19.1,55,16.3,9.2
 2004/01/05, 1:15,19,56,15.7,8.8
 2004/01/05, 1:30,18.8,56,15.5,8.9
 2004/01/05, 1:45,18.4,56,15.2,8.9
 2004/01/05, 2:00,18.2,57,15,9
 2004/01/05, 2:15,18.2,56,14.8,9
 2004/01/05, 2:30,18.1,56,14.6,9.1
 2004/01/05, 2:45,17.5,57,14.4,9.1
 2004/01/05, 3:00,17.6,56,14.3,9.2
 2004/01/05, 3:15,17.6,56,14.1,9.2
 2004/01/05, 3:30,17,56,14,9.3
 2004/01/05, 3:45,17.1,57,14,9.4
 2004/01/05, 4:00,17,57,13.8,9.4
 2004/01/05, 4:15,17.1,55,13.6,9.5
 2004/01/05, 4:30,16.9,55,13.5,8.7
 2004/01/05, 4:45,16.5,56,13.4,8.8
 2004/01/05, 5:00,16.8,55,13.3,8.9
 2004/01/05, 5:15,16.7,54,13.2,8.9
 2004/01/05, 5:30,16.2,55,13.1,9
 2004/01/05, 5:45,16.1,54,13,9
 2004/01/05, 6:00,16.1,54,12.8,9.1
 2004/01/05, 6:15,16.2,54,12.8,9.1
 2004/01/05, 6:30,15.7,54,12.7,9.2
 2004/01/05, 6:45,15.7,54,12.5,9.2
 2004/01/05, 7:00,15.6,55,12.5,9.2
 2004/01/05, 7:15,15.6,54,12.3,9.3
 2004/01/05, 7:30,15.4,53,12.3,9.3
 2004/01/05, 7:45,15.2,55,12.2,8.8
 2004/01/05, 8:00,15.9,56,12,8.9
 2004/01/05, 8:15,16.1,53,12.1,8.9
 2004/01/05, 8:30,16.3,59,12.3,8.9
 2004/01/05, 8:45,16.6,55,12.1,8.7
 2004/01/05, 9:00,17.4,51,11.9,8.7
 2004/01/05, 9:15,17.7,52,11.5,8.7
 2004/01/05, 9:30,18,51,11.5,8.7
 2004/01/05, 9:45,18.5,53,11.5,8.8
 2004/01/05,10:00,18.1,50,11.8,8.7
 2004/01/05,10:15,17.7,52,11.7,8.8
 2004/01/05,10:30,17.6,52,11.8,8.8
 2004/01/05,10:45,17.3,51,12.5,8.8
 2004/01/05,11:00,16.8,53,12.3,8.9
 2004/01/05,11:15,16.7,50,12.9,8.8
 2004/01/05,11:30,16.5,48,13.1,8.9
 2004/01/05,11:45,16.9,54,12.8,8.9
 2004/01/05,12:00,17.2,53,14,8.9
 2004/01/05,12:15,17.1,57,14.3,9
 2004/01/05,12:30,17.5,51,14.2,9
 2004/01/05,12:45,17.4,51,14.1,9
 2004/01/05,13:00,17.6,51,14.3,8.9
 2004/01/05,13:15,17.5,49,14.5,8.7
 2004/01/05,13:30,17.5,49,14.6,8.8
 2004/01/05,13:45,17.4,45,14.7,8.8
 2004/01/05,14:00,17.3,42,14.4,8.7
 2004/01/05,14:15,16.6,44,14.4,8.6
 2004/01/05,14:30,16.2,45,14.4,8.7
 2004/01/05,14:45,16.5,43,14.5,8.7
 2004/01/05,15:00,16.2,48,14.5,8.8
 2004/01/05,15:15,16.1,48,14.5,8.8
 2004/01/05,15:30,16.8,49,14.5,8.9
 2004/01/05,15:45,17.4,47,14.6,8.9
 2004/01/05,16:00,17.5,44,14.6,8.6
 2004/01/05,16:15,17.5,46,14.8,8.7
 2004/01/05,16:30,17.8,47,14.8,8.8
 2004/01/05,16:45,18.1,49,14.8,8.8
 2004/01/05,17:00,17.7,46,14.7,8.9
 2004/01/05,17:15,17.6,49,14.6,8.9
 2004/01/05,17:30,18.1,48,14.7,9.1
 2004/01/05,17:45,18.3,52,15.1,8.9
 2004/01/05,18:00,18.5,52,15.1,9.3
 2004/01/05,18:15,18.3,52,14.9,9.1
 2004/01/05,18:30,18.2,53,14.9,9.1
 2004/01/05,18:45,19.2,52,15.9,9.2
 2004/01/05,19:00,19.3,50,16.2,9.2
 2004/01/05,19:15,19.6,50,16.4,9.2
 2004/01/05,19:30,19.6,48,15.4,8.9
 2004/01/05,19:45,19.5,50,14.8,8.9
 2004/01/05,20:00,19.8,53,14.5,8.9
 2004/01/05,20:15,19.8,53,14.3,8.8
 2004/01/05,20:30,19.9,54,14.1,8.7
 2004/01/05,20:45,20.2,53,14,8.7
 2004/01/05,21:00,20.3,49,14.3,8.7
 2004/01/05,21:15,20.2,49,13.9,8.8
 2004/01/05,21:30,20.3,49,13.7,8.9
 2004/01/05,21:45,20.1,51,13.6,8.9
 2004/01/05,22:00,20.4,50,13.5,9
 2004/01/05,22:15,20.5,49,13.3,9
 2004/01/05,22:30,20.4,48,13.3,8.9
 2004/01/05,22:45,20.3,49,13.1,8.9
 2004/01/05,23:00,20.4,49,13.1,9
 2004/01/05,23:15,20.3,49,13,8.9
 2004/01/05,23:30,20.1,48,12.9,8.9
 2004/01/05,23:45,20.1,49,12.8,8.8
 2004/01/06, 0:00,19.1,50,13.8,8.8
 2004/01/06, 0:15,18.7,52,13.3,8.9
 2004/01/06, 0:30,18,54,13.1,8.9
 2004/01/06, 0:45,18,54,12.9,9
 2004/01/06, 1:00,17.7,54,12.8,9
 2004/01/06, 1:15,17.1,55,12.6,9.1
 2004/01/06, 1:30,17,56,12.5,9.1
 2004/01/06, 1:45,17.1,55,12.4,9.2
 2004/01/06, 2:00,16.8,54,12.3,8.8
 2004/01/06, 2:15,16.4,56,12.2,8.8
 2004/01/06, 2:30,16.3,55,12.1,8.9
 2004/01/06, 2:45,16.5,54,12,8.9
 2004/01/06, 3:00,16.2,54,12,9
 2004/01/06, 3:15,15.8,55,11.7,9
 2004/01/06, 3:30,15.8,54,11.7,9.1
 2004/01/06, 3:45,15.6,55,11.5,9.1
 2004/01/06, 4:00,15.7,54,11.3,9.2
 2004/01/06, 4:15,15.2,54,11.3,9.2
 2004/01/06, 4:30,15.1,55,11.2,9.3
 2004/01/06, 4:45,14.9,55,11,9.3
 2004/01/06, 5:00,15.1,54,10.8,9.4
 2004/01/06, 5:15,15,53,10.8,9.4
 2004/01/06, 5:30,14.5,55,10.6,9.5
 2004/01/06, 5:45,14.3,54,10.6,9.5
 2004/01/06, 6:00,14.5,54,10.5,9.6
 2004/01/06, 6:15,14.5,54,10.4,9.6
 2004/01/06, 6:30,14,54,10.4,9.6
 2004/01/06, 6:45,13.9,54,10.2,9.7
 2004/01/06, 7:00,14.2,54,10.8,8.6
 2004/01/06, 7:15,14,53,10.8,8.8
 2004/01/06, 7:30,14.5,53,10.8,8.9
 2004/01/06, 7:45,15.5,51,11.9,9
 2004/01/06, 8:00,16.2,49,12.4,8.8
 2004/01/06, 8:15,15.3,53,11,8.7
 2004/01/06, 8:30,16.1,50,10.6,8.7
 2004/01/06, 8:45,16.5,49,10.4,8.7
 2004/01/06, 9:00,16.5,49,10.2,8.8
 2004/01/06, 9:15,16.5,51,10.1,8.8
 2004/01/06, 9:30,15.8,55,10.1,8.8
 2004/01/06, 9:45,15.7,54,10.1,8.9
 2004/01/06,10:00,15.8,53,10,8.9
 2004/01/06,10:15,15.6,53,10.1,8.9
 2004/01/06,10:30,15.4,55,10.1,9
 2004/01/06,10:45,15.4,54,10.3,9
 2004/01/06,11:00,15.2,53,10.4,8.6
 2004/01/06,11:15,15,54,10.6,8.6
 2004/01/06,11:30,14.8,54,10.9,8.6
 2004/01/06,11:45,15.1,53,11.3,8.6
 2004/01/06,12:00,15.1,53,11.7,8.6
 2004/01/06,12:15,15.9,52,12,8.4
 2004/01/06,12:30,16.6,50,14,8.4
 2004/01/06,12:45,16.9,49,12.8,8.5
 2004/01/06,13:00,17.1,50,13.1,8.5
 2004/01/06,13:15,16.9,50,13.2,8.6
 2004/01/06,13:30,16.3,51,13.8,8.6
 2004/01/06,13:45,16.1,51,13.9,8.7
 2004/01/06,14:00,16,51,14.3,8.4
 2004/01/06,14:15,17,49,14.1,8.7
 2004/01/06,14:30,17,48,14.2,8.7
 2004/01/06,14:45,16.7,48,14.2,8.8
 2004/01/06,15:00,16.6,49,14.2,8.8
 2004/01/06,15:15,16.5,49,14.3,8.9
 2004/01/06,15:30,16.1,51,14.3,8.9
 2004/01/06,15:45,16.4,55,14.3,9
 2004/01/06,16:00,16.7,52,14.4,9
 2004/01/06,16:15,16.5,52,14.4,9.1
 2004/01/06,16:30,16.3,52,14.4,8.4
 2004/01/06,16:45,16.8,54,14.5,8.5
 2004/01/06,17:00,17.1,55,14.6,8.6
 2004/01/06,17:15,16.8,54,14.2,8.6
 2004/01/06,17:30,17.1,54,14,8.6
 2004/01/06,17:45,17.3,53,14,8.7
 2004/01/06,18:00,18,52,14.1,8.8
 2004/01/06,18:15,18.2,51,15.6,9
 2004/01/06,18:30,18.4,50,15.9,9.1
 2004/01/06,18:45,18.7,50,16.3,9.1
 2004/01/06,19:00,18.7,50,16.8,9.2
 2004/01/06,19:15,19,47,16.8,8.8
 2004/01/06,19:30,18.9,47,16.6,8.8
 2004/01/06,19:45,19,47,16.6,9
 2004/01/06,20:00,19.5,47,16.8,9
 2004/01/06,20:15,19.8,45,17,8.7
 2004/01/06,20:30,19.9,44,17,8.8
 2004/01/06,20:45,20,44,17.1,8.8
 2004/01/06,21:00,20.2,45,17.1,8.6
 2004/01/06,21:15,20.2,45,17.2,8.5
 2004/01/06,21:30,19.6,47,16.5,8.6
 2004/01/06,21:45,19.5,50,16.7,8.6
 2004/01/06,22:00,19.9,49,16.8,8.7
 2004/01/06,22:15,20.1,48,16.8,8.7
 2004/01/06,22:30,20,48,16.8,8.6
 2004/01/06,22:45,20.3,46,16.8,8.6
 2004/01/06,23:00,19.8,46,16.3,8.5
 2004/01/06,23:15,19,47,16,8.6
 2004/01/06,23:30,18.7,48,15.7,8.6
 2004/01/06,23:45,18.3,48,15.5,8.5
 2004/01/07, 0:00,17.7,49,15.3,8.6
 2004/01/07, 0:15,17.7,50,15.2,8.6
 2004/01/07, 0:30,17.4,51,15,8.6
 2004/01/07, 0:45,17,52,14.9,8.6
 2004/01/07, 1:00,16.9,54,14.5,8.7
 2004/01/07, 1:15,16.8,54,14,8.7
 2004/01/07, 1:30,16.6,54,13.8,8.8
 2004/01/07, 1:45,16.4,55,13.6,8.8
 2004/01/07, 2:00,16.2,56,13.3,8.9
 2004/01/07, 2:15,16.4,55,13.2,8.9
 2004/01/07, 2:30,16.2,55,13,9
 2004/01/07, 2:45,15.8,56,12.9,9
 2004/01/07, 3:00,16,55,12.8,9.1
 2004/01/07, 3:15,15.9,55,12.6,9.2
 2004/01/07, 3:30,15.6,55,12.5,9.2
 2004/01/07, 3:45,15.5,55,12.4,9.3
 2004/01/07, 4:00,15.6,56,12.3,9.3
 2004/01/07, 4:15,15.6,55,12.1,9.4
 2004/01/07, 4:30,15.2,55,12,9.4
 2004/01/07, 4:45,15.1,55,11.9,9.5
 2004/01/07, 5:00,15,56,11.7,9.5
 2004/01/07, 5:15,15.1,54,11.7,8.5
 2004/01/07, 5:30,14.9,54,11.5,8.5
 2004/01/07, 5:45,14.8,55,11.4,8.5
 2004/01/07, 6:00,14.5,55,11.3,8.6
 2004/01/07, 6:15,14.8,54,11.2,8.6
 2004/01/07, 6:30,14.5,53,11.3,8.7
 2004/01/07, 6:45,14.3,54,11.2,8.8
 2004/01/07, 7:00,14.3,55,11.5,8.8
 2004/01/07, 7:15,15.9,52,12.4,8.9
 2004/01/07, 7:30,16.5,52,12.9,8.6
 2004/01/07, 7:45,17,48,13.2,8.6
 2004/01/07, 8:00,17.1,47,13.3,8.6
 2004/01/07, 8:15,16.6,50,13.1,9.1
 2004/01/07, 8:30,17.4,48,13.7,9.1
 2004/01/07, 8:45,16.5,55,13,9.2
 2004/01/07, 9:00,15.5,53,12.8,9.2
 2004/01/07, 9:15,15.3,53,12.5,9.2
 2004/01/07, 9:30,15.3,54,12.5,8.7
 2004/01/07, 9:45,15.3,56,12.5,8.7
 2004/01/07,10:00,15.3,56,12.6,8.6
 2004/01/07,10:15,15.3,55,12.6,8.6
 2004/01/07,10:30,15.1,57,12.7,8.6
 2004/01/07,10:45,15.4,56,12.9,8.4
 2004/01/07,11:00,15.1,55,13,8.4
 2004/01/07,11:15,15.1,55,13.2,8.4
 2004/01/07,11:30,16.5,61,13.3,8.2
 2004/01/07,11:45,16.7,52,13.4,8.2
 2004/01/07,12:00,16.6,52,13.6,8.3
 2004/01/07,12:15,16.2,51,13.9,8.3
 2004/01/07,12:30,16.4,52,14.1,8.4
 2004/01/07,12:45,16.4,50,14.1,8.4
 2004/01/07,13:00,16.3,52,14.4,8.3
 2004/01/07,13:15,16.6,53,14.6,8.3
 2004/01/07,13:30,16.4,54,14.6,8.4
 2004/01/07,13:45,16.6,56,14.9,8.6
 2004/01/07,14:00,16.5,54,15,8.6
 2004/01/07,14:15,16.2,54,15.1,8.7
 2004/01/07,14:30,16.5,53,15.1,8.8
 2004/01/07,14:45,16.4,52,15,8.8
 2004/01/07,15:00,16,52,15,8.9
 2004/01/07,15:15,16.3,53,14.9,8.9
 2004/01/07,15:30,16.2,52,14.9,9
 2004/01/07,15:45,15.9,52,14.9,9
 2004/01/07,16:00,16.2,52,14.8,9.1
 2004/01/07,16:15,16.2,53,14.8,8.4
 2004/01/07,16:30,16.4,56,14.7,8.3
 2004/01/07,16:45,16.9,58,14.6,8.4
 2004/01/07,17:00,17.8,55,15.2,8.4
 2004/01/07,17:15,17.8,54,15.9,8.5
 2004/01/07,17:30,18.5,52,16.1,8.6
 2004/01/07,17:45,19.2,54,16.4,8.6
 2004/01/07,18:00,19,52,16.7,8.7
 2004/01/07,18:15,19.3,52,16.9,8.7
 2004/01/07,18:30,19.8,50,17.2,8.8
 2004/01/07,18:45,19.9,49,17.2,8.6
 2004/01/07,19:00,19.9,49,17.3,8.6
 2004/01/07,19:15,20,50,17.5,8.7
 2004/01/07,19:30,20,49,17.5,8.7
 2004/01/07,19:45,20,49,17.5,8.6
 2004/01/07,20:00,20.2,49,17.6,8.6
 2004/01/07,20:15,20.3,47,17.7,8.7
 2004/01/07,20:30,20.2,46,17.8,8.7
 2004/01/07,20:45,20.3,45,17.9,8.8
 2004/01/07,21:00,20.5,45,17.9,8.5
 2004/01/07,21:15,20.5,45,17.9,8.7
 2004/01/07,21:30,20.4,47,18,8.4
 2004/01/07,21:45,20.5,47,18,8.4
 2004/01/07,22:00,20.4,45,18.1,8.4
 2004/01/07,22:15,20.5,45,18.2,8.4
 2004/01/07,22:30,20.8,44,18.1,8.5
 2004/01/07,22:45,20.7,46,18.1,8.6
 2004/01/07,23:00,20.9,49,18.1,8.6
 2004/01/07,23:15,21.2,47,18.1,8.7
 2004/01/07,23:30,20.9,47,18.1,8.6
 2004/01/07,23:45,20.8,49,18.4,8.6
 2004/01/08, 0:00,20.7,49,18.3,8.7
 2004/01/08, 0:15,19.7,51,17.2,8.7
 2004/01/08, 0:30,19.3,54,16.5,8.8
 2004/01/08, 0:45,19.1,54,16.1,8.8
 2004/01/08, 1:00,18.8,54,15.9,8.9
 2004/01/08, 1:15,18.4,55,15.6,9
 2004/01/08, 1:30,18.3,55,15.4,8.5